Main page
METAR-TAF:

METAR-TAF

Airports :

Yap, Yap Island, Micronesia

Yap International Airport

latitude: 09-29N, longitude: 138-05E, elevation: 28 m

Current weather observation

The report was made 42 minutes ago, at 09:50 UTC
Wind 10 kt from the East
Temperature 27°C
Humidity 84%
Pressure 1009 hPa
Visibility: 16.1 km
Scattered clouds at a height of 1600 ft, Towering cumulus.
Scattered clouds at a height of 13000 ft
Overcast at a height of 30000 ft
light rain showers

METAR: PTYA 280950Z 09010KT 10SM -SHRA SCT016TCU SCT130 OVC300 27/24 A2980 RMK SHRAB49 TCU S-SW SLP091 T02740238

Time: 20:32 (10:32 UTC)

Forecast

The report was made 5 hours and 12 minutes ago, at 05:20 UTC
Forecast valid from 28 at 06 UTC to 29 at 06 UTC
Wind 9 kt from the East/Southeast
Visibility: 10 km
Scattered clouds at a height of 1600 ft
Scattered clouds at a height of 13000 ft
Broken clouds at a height of 30000 ft
showers in vicinity

TAF: PTYA 280520Z 2806/2906 11009KT P6SM VCSH SCT016 SCT130 BKN300

Weather observations and forecasts of more than 4000 airports (METAR and TAF reports).

The available stations are represented by yellow and red dots on the map.

Hover mouse over dot to see the name of the station.

Then click to see weather observations and forecasts.

To change the map : click on the green buttons with a black cross to zoom in, on the green button with a dash to zoom out, or on the green arrows for adjacent maps.


METAR-TAF: